Location: ????????
(55.0559°N, 39.1270°E)
Time: 18:30:03
(UTC+00:00)

Cosmos 2369 Rocket - Pass Details

Date: 15 November 2025
Orbit: 826 x 853 km, 71.0° (Epoch: 14 December)

Event Time Altitude Azimuth Distance (km) Brightness Sun altitude
Exits shadow 00:18:12 25° 37° (NE) 1,673 4.1 -38.8°
Drops below altitude 10° 00:22:23 10° 84° (E) 2,480 5.3 -38.3°
Sets 00:25:18 0° 97° (E) 3,416 6.1 -37.9°
